Weather History for Davenport, IA

Change the Weather History Date:

Monday, September 30, 2013

  Actual Average Record
Temperature  
Mean Temperature 60 °F 58 °F  
Max Temperature 77 °F 69 °F 90 °F (1971)
Min Temperature 43 °F 46 °F 32 °F (2003)
Degree Days  
Heating Degree Days 5 9  
Month to date heating degree days 80 121  
Since 1 July heating degree days 99 135  
Cooling Degree Days 0 1  
Month to date cooling degree days 138 70  
Year to date cooling degree days 911 774  
Growing Degree Days 10 (Base 50)    
Moisture  
Dew Point 47 °F    
Average Humidity 61    
Maximum Humidity 89    
Minimum Humidity 33    
Precipitation  
Precipitation 0.00 in 0.09 in 0.62 in (1962)
Month to date precipitation 1.62 3.06  
Year to date precipitation 30.01 28.88  
Snow  
Snow 0.00 in - - ()
Month to date snowfall 0.0  
Since 1 July snowfall 0.0  
Since 1 September snowfall 0.0  
Snow Depth 0.00 in    
Sea Level Pressure  
Sea Level Pressure 29.92 in    
Wind  
Wind Speed 9 mph (South)    
Max Wind Speed 17 mph    
Max Gust Speed 23 mph    
Visibility 10 miles    
Events      
T = Trace of Precipitation, MM = Missing Value Source: NWS Daily Summary

Daily Weather History Graph

Daily Weather History Graph

Search for Another Location

Airport:

Trip Planner

Search our weather history database for the weather conditions in past years. The results will help you decide how hot, cold, wet, or windy it might be!

Date:

Astronomy

Sep. 30, 2013 Rise Set
Actual Time 6:58 AM CDT 6:45 PM CDT
Civil Twilight 6:30 AM CDT 7:12 PM CDT
Nautical Twilight 5:58 AM CDT 7:45 PM CDT
Astronomical Twilight 5:25 AM CDT 8:17 PM CDT
Moon 2:32 AM CDT (9/30) 4:18 PM CDT (9/30)
Length of Visible Light 12h 42m
Length of Day
11h 46m
Waning Crescent, 19% of the Moon is Illuminated
Sep 30
Waning Crescent
Oct 4
New
Oct 11
First Quarter
Oct 18
Full
Oct 26
Last Quarter

Hourly Weather History & Observations

Time (CDT) Temp. Windchill Dew Point Humidity Pressure Visibility Wind Dir Wind Speed Gust Speed Precip Events Conditions
12:52 AM 50.0 °F - 43.0 °F 77% 29.99 in 10.0 mi SE 5.8 mph - N/A   Clear
1:52 AM 48.9 °F - 42.1 °F 77% 29.98 in 10.0 mi SSE 8.1 mph - N/A   Clear
2:52 AM 48.9 °F - 42.1 °F 77% 29.97 in 10.0 mi SSE 5.8 mph - N/A   Clear
3:52 AM 44.1 °F - 41.0 °F 89% 29.99 in 10.0 mi Calm Calm - N/A   Clear
4:52 AM 48.9 °F - 43.0 °F 80% 29.97 in 10.0 mi SE 8.1 mph - N/A   Clear
5:52 AM 48.0 °F - 44.1 °F 86% 29.97 in 10.0 mi SE 6.9 mph - N/A   Clear
6:52 AM 46.0 °F 43.1 °F 43.0 °F 89% 29.98 in 10.0 mi SE 5.8 mph - N/A   Clear
7:52 AM 51.1 °F - 46.9 °F 86% 29.99 in 9.0 mi SE 5.8 mph - N/A   Clear
8:52 AM 57.0 °F - 50.0 °F 77% 29.98 in 10.0 mi SSE 5.8 mph - N/A   Clear
9:52 AM 62.1 °F - 48.9 °F 62% 29.98 in 10.0 mi SSE 9.2 mph - N/A   Clear
10:52 AM 68.0 °F - 48.0 °F 49% 29.96 in 10.0 mi South 11.5 mph 17.3 mph N/A   Clear
11:52 AM 71.1 °F - 45.0 °F 39% 29.94 in 10.0 mi South 9.2 mph - N/A   Clear
12:52 PM 72.0 °F - 44.1 °F 37% 29.93 in 10.0 mi South 9.2 mph 18.4 mph N/A   Clear
1:52 PM 73.9 °F - 45.0 °F 35% 29.89 in 10.0 mi South 12.7 mph 17.3 mph N/A   Clear
2:52 PM 75.9 °F - 45.0 °F 33% 29.87 in 10.0 mi South 11.5 mph 17.3 mph N/A   Clear
3:52 PM 77.0 °F - 46.0 °F 33% 29.86 in 10.0 mi SSW 11.5 mph - N/A   Clear
4:52 PM 75.9 °F - 46.0 °F 35% 29.84 in 10.0 mi SSW 11.5 mph - N/A   Clear
5:52 PM 75.0 °F - 48.0 °F 38% 29.83 in 10.0 mi South 10.4 mph - N/A   Clear
6:52 PM 69.1 °F - 48.9 °F 49% 29.84 in 10.0 mi South 6.9 mph - N/A   Clear
7:52 PM 66.0 °F - 50.0 °F 56% 29.84 in 10.0 mi South 6.9 mph - N/A   Clear
8:52 PM 66.0 °F - 51.1 °F 59% 29.84 in 10.0 mi South 8.1 mph - N/A   Clear
9:52 PM 64.9 °F - 53.1 °F 65% 29.84 in 10.0 mi South 11.5 mph - N/A   Clear
10:52 PM 64.9 °F - 55.0 °F 70% 29.86 in 10.0 mi SSW 11.5 mph - N/A   Clear
11:52 PM 64.0 °F - 55.9 °F 75% 29.87 in 10.0 mi SSW 9.2 mph - N/A   Clear